Regional Weather Roundup
Issued by NWS Goodland, KS

Home | Current Version | Previous Version | Text Only | Print | Product List | Glossary Off
Versions: 1 2 3 4 5 6 7 8 9 10 11 12 13 14 15 16 17 18 19 20 21 22 23 24 25 26 27 28 29 30 31 32 33 34 35 36 37 38 39 40 41 42 43 44 45 46 47 48 49 50

000
ASUS43 KGLD 082259
RWRGLD

GOODLAND FORECAST AREA HOURLY WEATHER ROUNDUP
NATIONAL WEATHER SERVICE GOODLAND KS
400 PM MST THU DEC 08 2016

...OFFICIAL OBSERVATIONS...

CITY           SKY/WX    TMP DP  RH WIND       PRES   REMARKS
GOODLAND KS    CLEAR     15   4  61 SE6       30.49S
HILL CITY KS   CLEAR     20   2  45 N5        30.61S
IMPERIAL NEB   CLEAR     17   0  47 CALM      30.51S
MCCOOK NEB     CLEAR     15   3  59 S6        30.57S
AKRON CO       CLEAR     11   3  70 SE10      30.36S WCI  -3
BURLINGTON CO  CLEAR     19   5  54 SE13      30.43F WCI   6
LIMON CO       CLEAR     13   3  64 S13       30.32S WCI  -2
$$

...UNOFFICIAL OBSERVATIONS...

CITY           SKY/WX    TMP DP  RH WIND       PRES   REMARKS
COLBY KS       CLEAR     18   5  57 CALM      30.54S
LENORA KS        N/A     17  32 100 MISG        N/A
NORTON KS      CLEAR     16   1  53 NW3       30.59R
SHARON SPRINGS   N/A     19   6  55 CALM        N/A
TRENTON NEB      N/A     18  32 100 CALM        N/A
KIT CARSON CO    N/A     18   0  45 MISG        N/A
YUMA CO        FAIR       9   0  66 E6        30.42S
$$



USA.gov is the U.S. government's official web portal to all federal, state and local government web resources and services.